www.pogodaiklimat.ru

Погода и климат >> Архив погоды >> Россия >> Якутия >> Намцы


ПОГОДА в Намцах

  • Прогноз погоды в Намцах
  • Монитор погоды в Намцах

АРХИВ ПОГОДЫ в Намцах

Время (UTC), дата Ветер
(напр.,м/с)
 
Видим.   Явления Облачность Т
(С)
Тd
(С)
f
(%)
Тe
(С)
Тes
(С)
Комфортность P
(гПа)
Po
(гПа)
Тmin
(С)
Tmax
(С)
R
(мм)
R24
(мм)
S
(см)
12 16.09 СЗ 4 50 км 10/0
[Ac As]
+5.6 -1.1 62 +2 +2 1006.7 995.7 +9.9
15 16.09 СЗ 3 50 км 10/0
[Ac As]
+4.6 +0.4 74 +1 +1 1006.1 995.1
18 16.09 СЗ 3 50 км 10/0
[Ac As]
+3.7 0.0 77 0 0 1005.7 994.7
21 16.09 З 3 50 км в посл. час дождь 10/0
[Ac As]
+2.7 +0.3 84 -1 -1 1005.7 994.6
00 17.09 СЗ 2 20 км слаб. дождь 10/0
[Ac As]
+3.4 +1.1 85 0 +1 1006.3 995.3 +2.7 0.0
03 17.09 СЗ 2 20 км слаб. дождь 10/0 720 м
[As op]
+5.6 +2.9 83 +3 +4 1006.7 995.7
06 17.09 СЗ 2 20 км слаб. дождь 10/0 800 м
[As op]
+5.7 +4.3 91 +3 +4 1007.1 996.1
09 17.09 СЗ 3 50 км {дождь} 10/10 720 м
[St]
+5.7 +3.6 86 +2 +2 1008.3 997.3
12 17.09 СЗ 2 50 км {дождь} 10/10 750 м
[St]
+5.5 +3.1 85 +3 +3 1008.8 997.8 +6.9 4
15 17.09 СЗ 2 50 км 10/10 800 м
[St]
+4.7 +1.7 81 +2 +2 1008.7 997.7
18 17.09 З 2 20 км слаб. дождь со снегом 10/0 1000 м
[As op]
+4.3 +0.6 77 +2 +2 1008.6 997.5
21 17.09 ЮЗ 1 10 км слаб. дождь со снегом 10/10 120 м
[Frnb Ns]
+1.5 +0.7 94 -0 -0 1009.7 998.5
00 18.09 Ю 1 4000 м слаб. дождь со снегом 10/0 300 м
[As op]
+0.7 +0.1 96 -1 -1 1010.8 999.5 +0.7 5
03 18.09 ЮЗ 1 50 км {снег, дождь} 10/9 360 м
[Frnb Ac As]
+2.6 +1.0 89 +1 +1 1011.8 1000.6
06 18.09 Ю 1 50 км {снег, дождь} 10/10 360 м
[St]
+3.2 +1.7 90 +2 +2 1013.1 1001.9
09 18.09 ЮЗ 1 50 км 10/10 400 м
[St]
+2.9 +0.8 86 +1 +1 1014.5 1003.3
12 18.09 штиль 0 50 км 10/10 500 м
[St]
+2.5 +1.2 91 +1 +1 1015.3 1004.1 +3.6 0.6
15 18.09 штиль 0 50 км 10/10 480 м
[St]
+2.3 +1.3 93 +1 +1 1015.4 1004.2
18 18.09 Ю 1 50 км 10/10 400 м
[St]
+1.7 +1.2 96 -0 -0 1015.3 1004.1
21 18.09 Ю 1 50 км 10/8 240 м
[Frnb Ac As]
+1.7 +1.2 96 -0 -0 1015.3 1004.1
00 19.09 Ю 2 50 км 10/10 240 м
[St]
+2.9 +1.3 89 -0 -0 1015.4 1004.2 +1.6
03 19.09 В 3 50 км 9/9 630 м
[Cu med, cong]
+6.3 +1.3 70 +3 +4 1014.2 1003.1
06 19.09 В 4 50 км 9/3 1000 м
[Cu med, cong Ac trans Cs]
+7.6 +0.6 61 +5 +5 1012.5 1001.6
09 19.09 В 4 50 км 10/0 1500 м
[Ac und]
+6.5 +0.9 67 +3 +3 1012.3 1001.3
12 19.09 В 3 50 км 10/0
[Ac As]
+5.4 +0.5 71 +2 +2 1001.2 1001.2 +7.8
15 19.09 В 3 50 км 10/0
[Ac As]
+4.7 +0.3 73 +1 +1 1011.5 1000.4
18 19.09 СВ 3 20 км слаб. дождь 10/0
[Ac As]
+3.6 +2.1 90 -0 -0 1010.4 999.3
21 19.09 СВ 3 10 км слаб. дождь 10/0
[Ac As]
+3.2 +1.9 91 -1 -1 1010.3 999.1
00 20.09 С 2 10 км слаб. дождь 10/10 240 м
[Frnb]
+2.9 +2.1 94 -0 -0 1010.9 999.7 +1.9 7
03 20.09 С 2 4000 м слаб. ливневой снег {дождь} 10/10 270 м
[Frnb]
+2.1 +1.3 94 -1 -1 1012.4 1001.2
06 20.09 З 3 50 км {ливн. осадки, морось} 10/4 1000 м
[Cu med, cong Ac As]
+4.4 +3.2 92 +1 +1 1014.1 1002.9
09 20.09 ЮЗ 4 50 км 10/0
[Ac As]
+3.4 +1.3 86 -1 -1 1015.6 1004.4
12 20.09 ЮЗ 3 50 км 10/0
[Ac As]
+2.9 +1.3 89 -1 -1 1016.5 1005.3 +5.7 4
15 20.09 ЮЗ 2 50 км 10/0
[Ac As]
+2.0 +0.1 87 -1 -1 1016.4 1005.2
18 20.09 Ю 2 50 км 10/0
[Ac As]
+1.3 -0.7 87 -2 -2 1016.0 1004.7
21 20.09 ЮВ 2 50 км 10/0
[Ac As]
+0.2 -0.9 92 -4 -4 1015.5 1004.2
00 21.09 В 1 50 км 10/0
[Ac und]
+2.2 +1.2 93 0 +1 1015.0 1003.8 +0.1
03 21.09 В 2 50 км 9/0
[Ac trans]
+4.2 +0.8 79 +2 +4 1013.9 1002.7
06 21.09 ЮВ 2 50 км 10/3 1000 м
[Cu med, cong Ac trans]
+4.8 +0.9 76 +2 +3 1013.6 1002.5
09 21.09 ЮВ 2 50 км 3/0
[Ac trans]
+4.4 +0.5 76 +2 +2 1014.0 1002.8
12 21.09 В 1 50 км ясно +0.2 -0.7 94 -2 -2 1014.6 1003.3 +5.3
15 21.09 В 1 50 км ясно -2.7 -3.0 98 -5 -5 1014.3 1002.8
18 21.09 В 2 4000 м дымка 10/10 90 м
[St]
0.0 -0.3 98 -4 -4 1013.2 1001.9
21 21.09 В 3 50 км 10/10 120 м
[St]
0.0 -0.3 98 -5 -5 1011.8 1000.5
00 22.09 ЮВ 3 50 км 10/6 200 м
[St Ac As]
+1.2 -0.5 88 -3 -3 1010.8 999.5 -3.1
03 22.09 В 2 4000 м слаб. дождь со снегом 10/0
[As op]
+0.4 +0.4 100 -3 -3 1009.5 998.2
06 22.09 В 2 10 км слаб. дождь со снегом 10/0 600 м
[As op]
+1.5 +1.2 98 -2 -2 1008.7 997.5
09 22.09 штиль 0 4000 м дымка {снег, дождь} 10/10 180 м
[St]
+2.0 +1.5 96 +1 +1 1009.9 998.7
12 22.09 В 1 20 км {снег, дождь} 10/10 210 м
[St]
+2.0 +1.7 98 0 0 1011.0 999.8 +2.1 4
15 22.09 З 1 50 км 10/10 240 м
[St]
+1.7 +1.2 96 -0 -0 1011.3 1000.1
18 22.09 штиль 0 50 км 10/10 180 м
[St]
+1.4 +0.9 96 0 0 1011.5 1000.3
21 22.09 штиль 0 4000 м дымка 10/10 60 м
[St]
+1.4 +0.9 96 0 0 1012.2 1000.9
00 23.09 З 2 50 км в посл. час туман 10/10 120 м
[St]
+2.9 +2.7 99 -0 -0 1012.8 1001.6 +1.2
03 23.09 З 3 50 км 9/8 360 м
[St Ac trans]
+5.7 +3.3 85 +2 +3 1013.2 1002.2
06 23.09 СЗ 6-10
{11}
50 км 3/3 600 м
[Cu med, cong Ci fib]
+9.0 -0.7 51 +6 +6 1013.0 1002.1
09 23.09 СЗ 3
{11}
50 км 1/0
[Ac cuf]
+7.6 -0.7 56 +5 +5 1013.6 1002.6

 

Местоположение метеостанции Намцы (Якутия, Россия): широта 62.72 долгота 129.60 высота над уровнем моря 90 м.

В архиве по умолчанию представлена погода в Намцах за последнюю неделю. Архивные данные за месяц целиком и за предыдущие месяцы, начиная с января 2011 года, Вы можете получить, выбрав интересующий диапазон дат из раскрывающегося списка и нажав кнопку "Ввод!".


*Определитесь, кто Вы:
робот инопланетянин человек

Внимание! Время в таблицах - всемирное. Для получения местного времени необходимо прибавить поправку, которая равна 9 ч.

Смотрите также архив погоды в соседних городах и на ближайших метеорологических станциях:

Погода в Якутске (Якутия, Россия) (80 км)
Погода в Батамае (Якутия, Россия) (90 км)
Погода в Верхоянском Перевозе (Якутия, Россия) (138 км)
Погода в Покровске (Якутия, Россия) (140 км)
Погода в Бердигестяхе (Якутия, Россия) (143 км)
Погода в Сеген-Кюеле (Якутия, Россия) (147 км)
Погода в Чурапче (Якутия, Россия) (173 км)
Погода в Сангаре (Якутия, Россия) (175 км)
Погода в Ытык-Кюёле (Якутия, Россия) (204 км)
Погода в Сого-Хае (Якутия, Россия) (235 км)

Пояснения к столбцам:

Ветер - указаны скорость ветра в м/с - средняя за 10 мин, порывы в срок и между сроками (в фигурных скобках) и направление, откуда дует ветер: С - северный, СВ - северо-восточный, В - восточный, ЮВ - юго-восточный, Ю - южный, ЮЗ - юго-западный, З - западный, СЗ - северо-западный.
Видимость - горизонтальная дальность видимости в метрах или километрах. При видимости от 1 до 10 км при отсутствии осадков обычно наблюдается дымка, при ухудшении видимости до 1 км и менее - туман. В сухую погоду видимость может ухудшаться дымом, пылью или мглою.
Явления - указаны атмосферные явления, наблюдавшиеся в срок или в последний час перед сроком; фигурными скобками обозначены явления, наблюдавшиеся между сроками (за 1-3 часа до срока); квадратными скобками обозначены град или гололедные отложения с указанием их диаметра в мм.
Облачность - указаны через наклонную черту общая и нижняя облачность в баллах и высота нижней границы облаков в метрах; квадратными скобками обозначены формы облаков: Ci - перистые, Cs - перисто-слоистые, Cc - перисто-кучевые, Ac - высококучевые, As - высокослоистые, Sc - слоисто-кучевые, Ns - слоисто-дождевые, Cu - кучевые, Cb - кучево-дождевые. Подробнее классификацию облаков см. в Атласе облаков (PDF).
T - Температура воздуха - температура, измеренная на высоте 2 м над землей.
Td - Температура точки росы - температура, при понижении до которой содержащийся в воздухе водяной пар достигнет насыщения.
f - Относительная влажность воздуха - влажноcть воздуха, измеренная на высоте 2 м над землей.
Te - Эффективная температура - температура, которую ощущает одетый по сезону человек в тени. Характеристика душности погоды. При расчете учитывается влияние влажности воздуха и скорости ветра на теплоощущения человека.
Tes - Эффективная температура на солнце - температура, которую ощущает человек, с поправкой на солнечный нагрев. Характеристика знойности погоды. Зависит от высоты солнца над горизонтом, облачности и скорости ветра. Ночью, в пасмурную погоду, а также при ветре 12 м/с и более поправка равна нулю.
P - Атмосферное давление - приведенное к уровню моря атмосферное давление.
Po - Атмосферное давление - измеренное на уровне метеостанции атмосферное давление.
Tmin - Минимальная температура - минимум температуры воздуха на высоте 2 м над землей.
Tmax - Максимальная температура - максимум температуры воздуха на высоте 2 м над землей.
R - Количество осадков - Количество выпавших осадков за период времени, мм. При наведении курсора мыши на число - период времени, за который выпало указанное количество осадков.
R24 - Количество осадков - Количество выпавших осадков за 24 часа, мм.
S - Снежный покров - Высота снежного покрова, см. При наведении курсора мыши на число - состояние снежного покрова и степень покрытия местности в баллах.